This is the latest recevied weather packets stored in our database for station/object K8JCL-13. If no packets are shown the sender has not sent any weather packets the latest 10 day(s).
| Time | Temp. | Humidity | Pressure | Rain* | Wind** | Luminosity | Snow |
|---|---|---|---|---|---|---|---|
| 1777168717 | 16.11° C | 87% | 1014.3 hPa | 0 mm | - | 0 W/m² | - |
| 1777168413 | 16.11° C | 86% | 1014.4 hPa | 0 mm | - | 0 W/m² | - |
| 1777168112 | 16.67° C | 87% | 1014.1 hPa | 0 mm | - | 0 W/m² | - |
| 1777167809 | 16.67° C | 86% | 1013.9 hPa | 0 mm | - | 0 W/m² | - |
| 1777167504 | 16.67° C | 86% | 1013.7 hPa | 0 mm | - | 0 W/m² | - |
| 1777167200 | 16.67° C | 86% | 1013.8 hPa | 0 mm | - | 0 W/m² | - |
| 1777166896 | 16.67° C | 85% | 1013.7 hPa | 0 mm | - | 0 W/m² | - |
| 1777166591 | 17.22° C | 85% | 1013.5 hPa | 0 mm | - | 0 W/m² | - |
| 1777166287 | 17.22° C | 85% | 1013.3 hPa | 0 mm | - | 0 W/m² | - |
| 1777165983 | 17.22° C | 85% | 1013.2 hPa | 0 mm | - | 0 W/m² | - |
| 1777165682 | 17.78° C | 84% | 1013.1 hPa | 0 mm | - | 0 W/m² | - |
| 1777165377 | 17.78° C | 83% | 1013.2 hPa | 0 mm | - | 0 W/m² | - |
| 1777165073 | 18.33° C | 80% | 1012.9 hPa | 0 mm | - | 0 W/m² | - |
| 1777164773 | 18.33° C | 76% | 1012.4 hPa | 0 mm | - | 0 W/m² | - |
| 1777164471 | 18.89° C | 70% | 1012.4 hPa | 0 mm | - | 0 W/m² | - |
| 1777164166 | 18.33° C | 71% | 1012.2 hPa | 0 mm | - | 0 W/m² | - |
| 1777163861 | 18.89° C | 70% | 1012.3 hPa | 0 mm | - | 0 W/m² | - |
| 1777163556 | 18.89° C | 70% | 1012.3 hPa | 0 mm | - | 1 W/m² | - |
| 1777163253 | 18.89° C | 69% | 1012.3 hPa | 0 mm | - | 1 W/m² | - |
| 1777162949 | 19.44° C | 68% | 1012.1 hPa | 0 mm | - | 3 W/m² | - |
| 1777162648 | 19.44° C | 67% | 1011.9 hPa | 0 mm | - | 4 W/m² | - |
| 1777162343 | 20° C | 68% | 1012.1 hPa | 0 mm | - | 6 W/m² | - |
| 1777162038 | 20° C | 66% | 1012 hPa | 0 mm | - | 8 W/m² | - |
| 1777161733 | 20° C | 67% | 1011.6 hPa | 0 mm | - | 10 W/m² | - |
| 1777161431 | 20° C | 67% | 1011.9 hPa | 0 mm | - | 12 W/m² | - |
* Rain latest hour (hover to see other rain measurements)
** Current wind speed in m/s (hover to see current wind gust speed)